Theta_e
310 309 308 306 305 307 308 308 308 308 306 304 304 304 304 304 304 304 303 303 303 304 302 303 304 303 303 302 301 302 303 303 303 302 301 301 300 298 297 296 296 296 296 296 294 292 290 289 288 288 288 288 288 288 288 288 288 288 288 288 288 288 288 288 288 288 287 287 287 286 286 286 285 285 285 285 285 285 285 285 285 285 285 285 285 285 285
309 306 306 305 304 305 305 304 304 305 304 303 303 303 302 302 302 302 302 302 301 301 301 302 302 301 301 301 302 302 302 302 302 301 301 300 299 298 298 297 297 297 296 295 293 291 289 289 289 288 288 288 288 288 288 288 288 289 289 289 289 289 289 288 288 288 288 287 287 286 286 285 285 285 285 285 285 284 285 285 285 285 285 285 285 284 285
308 304 304 304 303 303 303 303 302 301 301 301 302 302 301 301 302 301 301 301 301 301 300 301 301 301 300 300 300 301 301 301 301 300 300 299 299 298 298 297 297 296 296 294 292 290 289 289 289 289 289 289 289 289 289 289 289 289 289 289 289 289 289 288 288 288 288 288 287 286 286 285 285 285 284 284 284 284 284 284 284 284 284 284 284 284 284
306 301 300 302 302 302 302 301 300 299 299 300 300 300 301 301 300 300 300 301 301 301 299 299 299 299 298 298 299 299 300 299 299 298 298 298 298 298 297 297 297 296 296 295 292 291 290 290 290 290 290 290 290 290 289 289 289 289 289 289 289 289 288 288 288 288 288 288 287 286 285 285 284 284 284 284 284 284 284 284 284 284 284 284 284 284 284
304 299 300 302 302 302 301 300 299 298 298 298 298 299 300 300 299 300 300 300 300 300 300 300 300 298 297 297 298 298 298 298 297 297 297 296 296 296 296 296 295 295 294 294 293 292 291 292 291 291 291 291 290 290 290 289 289 289 289 289 289 288 288 288 288 288 288 287 286 285 284 284 284 284 283 283 283 283 283 283 283 283 284 284 284 284 284
303 298 299 301 300 301 300 299 301 300 298 298 298 298 299 299 299 301 300 300 301 301 300 301 301 299 298 297 297 297 296 296 296 295 295 294 294 294 294 293 293 293 293 293 293 292 292 292 292 291 291 291 290 290 290 289 289 289 289 289 288 288 288 287 287 287 287 286 285 284 284 284 283 283 283 283 283 283 283 283 283 283 284 284 284 284 283
301 297 298 300 300 300 299 299 300 300 298 299 299 298 298 298 298 299 299 300 300 298 297 299 299 298 297 296 295 295 295 295 295 294 293 293 292 292 292 292 292 292 292 292 292 292 292 292 291 291 290 290 290 290 289 289 289 289 289 289 288 287 287 287 287 287 286 285 284 283 283 283 283 282 282 282 282 282 282 283 283 283 283 284 283 283 283
299 298 299 300 299 298 298 298 297 296 296 297 297 298 298 298 298 297 298 299 297 295 295 296 296 295 294 293 293 293 294 293 293 292 292 292 291 291 291 291 291 291 291 291 291 291 291 291 291 290 290 290 290 290 289 289 289 289 289 288 287 287 287 286 286 285 284 283 283 283 283 282 282 282 282 282 282 282 282 283 283 283 283 283 282 282 282
299 299 299 299 298 297 297 297 296 295 296 298 299 298 299 299 296 295 298 300 297 292 293 295 294 293 292 292 292 292 292 292 292 291 291 291 291 291 291 291 290 290 290 290 290 290 290 290 290 290 290 290 290 289 289 289 289 289 288 287 287 287 287 286 285 284 283 283 283 283 282 282 282 282 282 282 282 282 282 282 282 282 282 282 282 281 281
299 298 298 298 297 296 297 297 296 294 295 297 297 297 299 299 294 293 297 300 295 290 290 292 292 291 292 293 293 292 292 292 292 291 291 291 291 291 290 290 290 290 290 290 290 290 290 289 289 289 289 289 289 289 289 289 289 288 287 287 287 286 286 285 284 283 283 283 282 282 282 282 282 281 281 281 282 282 281 282 282 282 281 281 281 279 279
298 297 297 297 296 296 297 298 296 293 293 295 295 296 299 297 292 292 295 295 293 291 291 291 290 291 293 294 294 293 293 292 292 292 291 291 291 290 290 290 290 290 290 290 290 289 289 289 289 289 289 289 289 289 289 288 288 287 287 287 287 286 285 284 283 283 282 282 282 281 281 281 281 281 281 281 281 281 281 281 281 281 280 280 280 278 277
298 297 297 296 296 297 298 298 294 292 292 295 296 297 298 295 291 292 294 293 293 295 293 291 291 292 294 294 293 293 293 293 292 292 291 291 291 290 290 290 290 289 290 289 289 289 289 289 289 289 289 289 289 288 288 288 287 287 287 287 286 286 285 284 283 282 282 282 281 281 281 281 281 281 281 281 281 281 281 280 280 280 279 278 278 277 276
297 297 297 296 296 298 297 295 294 292 293 295 296 296 297 294 291 293 294 293 293 294 292 291 291 293 293 293 293 293 292 292 292 291 291 291 290 290 290 290 289 289 289 289 289 289 289 289 289 289 289 288 288 288 287 287 287 287 287 286 286 286 285 283 283 282 282 281 281 281 281 280 281 281 281 280 280 280 280 280 280 279 279 277 277 276 275
297 297 297 296 297 297 295 293 292 292 293 296 296 295 295 294 293 293 294 293 293 293 293 292 292 293 293 293 293 292 292 291 291 291 291 290 290 290 289 289 289 289 289 289 289 289 289 289 289 288 288 288 288 287 287 287 286 286 286 286 285 284 283 282 282 282 281 281 280 280 280 280 280 281 280 280 280 280 280 279 279 278 278 276 275 275 274
296 296 296 295 296 296 294 293 293 293 295 297 296 295 294 294 294 294 293 293 293 293 293 293 293 293 293 292 292 292 291 291 291 291 290 290 290 289 289 289 289 289 289 289 289 289 289 289 288 288 288 288 287 287 286 286 286 286 285 285 284 283 282 282 282 281 281 280 280 280 280 280 280 280 280 279 279 279 278 278 278 277 276 275 274 274 273
296 296 296 296 296 294 293 294 295 294 295 296 295 294 294 294 294 294 293 293 293 293 293 293 292 292 292 292 292 291 291 291 291 291 291 290 289 289 289 289 289 289 289 289 288 288 288 288 288 288 287 287 287 286 286 286 286 285 285 285 284 283 282 282 281 281 280 280 280 279 279 279 279 279 279 279 279 278 277 277 277 276 275 274 273 273 273
295 295 297 297 295 293 293 295 295 295 295 295 294 294 294 293 293 293 293 293 293 293 293 293 292 292 292 291 291 291 291 291 291 291 291 290 289 289 289 289 289 289 289 288 288 288 288 288 288 287 287 286 286 286 285 285 285 285 285 284 283 282 282 281 281 280 280 280 279 279 279 279 279 279 278 278 278 277 276 276 275 275 274 273 272 272 273
293 291 292 292 291 292 293 294 294 294 294 294 294 293 293 293 293 293 292 292 293 293 293 292 292 292 291 291 291 291 291 291 291 291 291 290 289 289 289 289 289 288 288 288 288 288 288 287 287 287 286 286 286 285 285 285 285 284 283 282 282 282 281 281 280 280 279 279 279 279 279 278 278 278 278 277 277 277 276 275 275 274 274 273 272 272 272
293 292 292 291 291 292 293 293 294 294 294 294 293 292 292 292 292 292 292 292 292 292 292 292 291 291 291 291 291 291 291 291 291 291 290 289 289 289 289 289 288 288 288 288 288 288 288 287 287 286 286 285 285 285 285 284 284 283 282 281 281 281 281 280 280 279 279 279 279 278 278 278 278 278 277 277 276 276 275 275 274 274 274 273 273 272 270
292 293 292 291 291 292 292 293 293 293 293 293 293 292 292 292 292 292 291 291 291 291 292 291 291 291 291 291 291 291 291 291 291 290 290 289 289 289 289 288 288 288 288 288 287 287 287 287 286 286 285 285 285 284 284 283 283 282 281 281 281 281 280 280 279 279 278 278 278 278 278 278 278 277 277 276 276 276 275 275 274 274 274 272 272 270 268
292 292 291 290 290 291 292 292 292 292 292 292 292 292 292 292 291 291 291 291 291 291 291 291 291 291 291 291 291 290 290 290 290 290 289 289 289 289 288 288 288 287 287 287 287 287 286 286 286 285 285 284 284 284 283 283 282 281 281 281 281 280 279 279 278 278 278 278 278 278 278 278 277 277 276 276 276 276 275 275 274 274 272 271 270 269 267
292 292 291 291 291 291 291 292 292 292 292 292 292 292 292 292 292 292 291 291 291 291 291 291 291 291 291 291 290 290 290 290 290 289 289 289 289 288 288 288 287 287 287 286 286 286 286 285 285 284 284 283 283 283 283 282 281 280 280 280 280 279 279 278 278 278 277 277 277 277 277 277 277 277 276 276 275 275 275 275 274 274 272 271 270 269 268
292 291 291 291 291 291 291 292 292 292 292 292 291 292 292 292 292 292 292 292 291 291 291 291 291 291 291 290 290 290 290 290 290 289 289 289 289 288 288 287 287 287 286 286 286 285 285 284 284 284 283 283 282 282 281 281 280 280 280 280 279 279 278 278 277 277 277 277 277 277 277 277 276 276 276 276 276 275 275 275 275 275 274 273 272 270 269
291 291 292 292 291 291 291 292 292 292 292 292 291 291 291 292 292 291 291 291 291 291 291 291 291 291 290 290 290 290 290 290 289 289 289 289 288 288 288 287 287 286 286 286 285 285 284 284 283 283 282 282 281 281 280 280 280 280 279 279 279 278 278 277 277 277 276 276 276 277 276 276 276 275 275 276 276 276 276 276 275 275 275 274 272 271 271
292 292 292 292 291 291 292 292 292 292 292 292 291 291 291 291 291 291 291 291 291 291 291 291 291 291 290 290 290 290 290 290 289 289 289 288 288 288 287 287 286 286 285 285 285 284 284 283 283 282 281 280 280 280 279 279 279 279 279 278 278 278 277 277 276 276 276 276 276 276 276 275 275 275 275 275 275 276 276 277 277 276 276 274 272 271 271
292 292 292 291 291 291 291 291 291 291 292 291 291 291 291 291 291 291 291 291 291 291 291 291 291 290 290 290 290 290 290 289 289 289 288 288 288 287 287 286 286 285 285 284 284 283 283 283 282 282 280 280 280 279 279 279 279 278 278 278 277 277 276 276 276 276 275 275 275 275 275 275 274 274 274 274 274 274 274 275 276 277 277 276 275 273 272
292 292 292 291 290 291 291 291 291 291 292 291 291 291 291 291 291 291 291 291 291 291 291 291 290 290 290 290 290 290 289 289 288 288 288 287 287 287 286 286 285 285 284 284 283 283 283 282 282 281 280 279 279 279 279 278 278 278 278 277 277 276 276 275 275 275 275 275 275 275 275 274 274 274 274 274 274 273 273 273 274 275 275 276 276 275 274
292 292 291 291 291 291 292 291 291 291 291 291 291 291 291 291 291 291 291 291 291 291 290 290 290 290 290 290 289 289 289 288 288 288 287 287 286 286 285 285 284 284 283 283 282 282 282 281 281 280 279 279 279 279 278 278 278 277 277 276 276 275 275 275 274 274 274 274 274 274 274 274 274 274 274 273 273 273 273 273 273 273 273 274 275 275 275
292 292 291 291 291 292 292 291 291 291 291 291 291 291 291 291 290 290 290 290 290 290 290 290 290 289 289 289 289 288 288 287 287 287 287 286 285 285 284 284 283 283 283 282 282 281 281 280 280 279 278 278 278 278 277 277 277 277 276 276 275 275 274 274 274 273 274 274 274 274 274 273 273 273 273 273 273 273 273 273 273 273 273 273 273 274 275
292 291 291 291 291 291 291 291 291 291 291 291 291 291 290 290 290 290 290 290 290 290 289 289 289 289 288 288 288 287 287 287 287 287 286 285 284 283 283 283 282 282 282 281 280 280 279 279 279 278 278 277 277 277 277 277 276 276 275 275 274 274 273 273 273 273 273 274 274 273 273 273 273 273 273 273 272 272 273 273 273 272 272 272 272 272 273
291 291 291 291 291 291 290 290 291 291 291 291 290 290 290 290 290 290 290 290 290 289 289 289 288 288 287 287 287 287 287 287 286 285 284 283 282 282 281 281 281 280 280 280 279 279 278 278 278 277 277 277 276 276 276 276 275 275 274 274 273 273 273 272 272 272 273 273 273 273 273 273 272 272 272 272 272 272 272 272 272 272 272 272 272 271 270
291 291 291 291 290 290 290 290 290 290 290 290 290 290 290 290 290 290 290 290 290 289 288 288 287 287 286 286 286 286 285 285 284 283 282 281 281 280 280 280 280 279 279 278 278 278 277 277 277 277 276 276 276 276 275 275 274 274 273 273 272 272 272 272 272 272 272 273 273 272 272 272 272 272 272 272 272 272 272 272 272 272 272 272 271 270 270
291 290 290 290 290 289 289 290 290 290 290 290 290 290 290 290 290 290 289 289 288 288 287 287 286 285 285 285 285 284 284 283 282 281 281 280 279 279 279 279 278 278 278 277 277 277 277 277 277 276 276 275 275 275 274 274 274 273 272 272 271 271 271 271 271 271 272 272 272 272 271 272 272 272 272 271 271 271 271 271 271 271 271 271 271 270 270
291 290 291 291 290 289 289 290 290 290 290 290 290 290 290 290 289 289 288 287 287 286 286 286 285 285 284 284 283 282 282 281 280 280 279 278 278 278 278 278 277 277 277 276 276 276 276 276 276 276 275 274 274 274 273 273 273 272 271 271 271 271 270 270 270 271 271 271 271 271 271 271 271 271 271 271 271 271 271 271 271 271 271 271 271 270 270
291 291 291 291 291 290 290 290 290 290 290 290 290 290 290 289 289 288 287 287 286 286 285 285 284 284 283 283 282 281 280 279 279 278 278 277 277 277 277 277 276 276 276 276 275 275 275 275 275 275 274 274 273 273 272 272 271 271 270 270 270 270 270 270 270 271 271 271 271 271 271 271 271 271 271 270 270 270 270 270 270 270 270 270 270 270 270
291 290 290 290 290 290 290 290 290 290 289 289 289 289 288 288 287 287 286 286 285 285 284 284 283 283 282 281 280 280 279 278 278 277 277 276 276 276 276 276 276 276 276 276 275 274 275 275 274 274 273 273 272 272 271 271 270 270 270 269 269 269 269 269 270 270 270 270 271 271 271 270 270 270 270 270 270 270 270 270 270 270 270 269 269 270 270
290 290 290 290 290 290 289 289 289 289 288 288 288 288 287 287 286 286 286 285 284 283 283 282 281 281 280 280 279 278 278 277 277 276 276 275 275 275 275 276 275 275 276 275 274 273 273 273 273 273 272 272 271 270 270 269 269 269 269 269 269 269 269 269 269 270 270 270 270 270 270 270 270 270 270 269 269 269 269 269 269 269 269 269 269 269 269
290 290 290 289 289 288 288 288 287 287 287 287 287 286 286 285 285 284 283 283 282 281 281 280 279 279 278 277 277 276 276 276 276 275 275 275 275 275 275 275 275 275 275 274 273 273 272 272 272 271 271 270 270 269 269 268 268 268 268 268 268 268 268 269 269 269 269 270 270 270 270 270 270 269 269 269 269 269 269 269 269 269 269 269 269 269 269
290 289 289 288 287 287 287 286 286 286 285 285 285 284 283 283 282 282 281 281 280 279 279 278 277 277 276 276 275 275 275 275 275 275 275 275 275 275 275 275 274 273 273 273 273 272 272 271 271 270 270 269 268 268 268 267 267 267 268 268 268 268 268 268 269 269 269 269 269 270 270 269 269 269 269 269 269 268 269 269 269 269 269 269 269 269 269
289 288 287 286 286 285 285 284 284 284 284 283 282 281 281 281 280 280 279 279 278 277 277 276 275 275 275 274 274 274 274 274 274 274 274 274 274 274 275 274 273 272 272 272 272 271 270 270 269 269 268 268 267 267 267 267 267 267 267 267 267 267 268 268 268 268 268 268 269 269 269 269 269 269 268 268 268 268 268 268 269 269 269 269 269 269 269
287 286 285 284 284 283 283 283 283 282 281 280 280 279 279 279 278 278 277 276 276 275 275 274 274 274 273 273 273 273 273 273 273 273 273 273 273 273 274 273 271 271 271 271 270 269 269 268 267 267 267 266 266 266 266 266 267 267 267 267 267 267 267 268 268 268 268 268 268 269 269 269 268 268 268 268 268 268 268 268 268 268 268 268 268 269 269
285 284 283 282 282 282 282 281 280 280 279 278 278 277 277 276 276 275 275 274 274 274 273 273 273 273 273 273 273 272 272 272 272 272 272 272 272 272 272 272 270 269 269 269 268 268 267 266 266 266 266 266 266 266 266 266 266 266 266 267 267 267 267 267 267 267 267 267 268 268 268 268 268 268 268 268 268 268 268 268 268 268 268 268 268 268 268
282 282 281 281 281 280 280 279 278 277 277 276 276 275 275 274 274 273 273 273 273 273 273 273 273 273 272 272 272 272 271 271 271 271 271 271 270 270 270 270 269 267 267 267 266 266 265 265 265 265 265 265 265 266 266 266 266 266 266 266 267 267 267 267 267 267 267 267 267 267 267 268 268 268 268 268 268 268 268 268 268 268 268 268 268 268 268
281 280 280 280 279 279 278 277 276 276 275 275 274 274 273 273 273 273 273 273 273 273 273 272 272 272 272 271 271 271 270 270 270 270 270 269 268 268 267 267 266 265 265 265 264 264 264 264 264 265 265 265 265 265 265 266 266 266 266 266 267 267 267 267 267 267 267 267 267 267 267 267 267 267 268 268 268 268 268 268 268 268 268 268 268 268 268
280 279 278 278 277 277 276 275 275 274 274 274 273 273 273 272 272 272 272 272 272 272 272 272 271 271 270 270 270 269 269 269 268 268 268 267 267 266 265 264 264 264 263 263 263 263 263 263 264 264 265 265 265 265 265 265 266 266 266 266 267 267 267 267 267 267 267 267 267 267 266 267 267 267 267 267 268 268 268 268 268 268 268 268 268 268 268
278 278 277 276 275 275 274 274 274 273 273 273 273 273 272 272 272 272 272 272 272 271 271 271 270 270 269 269 268 268 268 267 266 266 266 266 265 264 263 262 262 263 263 263 263 263 263 264 264 264 264 265 265 265 265 265 265 266 266 266 266 267 267 266 266 266 267 267 267 266 266 267 267 267 267 267 267 267 268 268 267 267 267 267 267 267 268
276 276 275 274 273 273 273 273 273 272 272 272 272 272 272 271 271 271 271 271 270 270 270 269 269 268 268 268 267 267 267 266 265 264 264 264 264 263 263 262 262 262 263 263 263 263 264 264 264 264 264 264 265 265 265 265 265 266 266 266 266 266 266 266 266 266 266 266 266 266 266 267 267 267 267 267 267 267 267 267 267 267 267 267 267 267 267
274 274 273 273 272 272 272 272 272 272 272 271 271 271 271 271 271 270 270 270 269 269 269 268 268 267 267 267 266 266 266 265 264 264 264 263 263 263 263 263 263 263 263 263 264 264 264 264 264 264 264 264 265 265 265 265 265 266 266 266 266 266 266 266 266 266 266 266 266 266 266 267 267 267 267 267 267 267 267 267 267 267 267 267 267 267 267
273 272 272 272 272 272 272 271 271 271 271 271 271 270 270 270 270 269 269 269 268 268 268 267 267 267 266 266 265 265 265 265 264 264 263 263 263 263 263 263 264 264 264 264 264 264 264 264 264 264 264 265 265 265 265 266 266 266 266 266 266 267 267 267 267 267 267 267 267 267 267 267 267 267 267 267 267 267 267 267 267 267 267 267 267 267 267
272 271 271 271 271 271 271 270 270 270 270 270 270 269 269 269 269 268 268 267 267 267 267 267 267 266 266 265 265 265 265 264 264 264 264 264 264 264 264 264 264 264 264 264 264 264 264 264 264 264 265 265 265 265 266 266 266 266 266 267 267 267 267 267 267 267 267 267 267 267 267 267 267 267 267 267 267 267 267 267 267 267 267 267 267 267 267
271 271 270 270 270 270 270 270 269 269 269 269 268 268 268 268 268 267 267 267 267 266 266 266 266 266 265 265 265 265 265 265 265 265 265 264 264 264 264 264 264 264 264 264 264 264 264 264 265 265 265 265 265 266 266 266 266 266 266 267 267 267 267 267 267 267 267 267 266 266 266 266 266 266 267 267 267 267 267 267 267 267 267 267 267 267 267
270 270 270 270 269 269 269 269 268 268 268 268 268 268 267 267 267 267 267 266 266 266 266 265 265 266 265 265 265 265 265 265 265 265 265 264 264 264 264 264 264 264 264 264 264 264 265 265 265 265 265 265 266 266 266 266 266 266 267 267 267 267 266 266 266 266 266 266 266 266 266 266 266 266 266 266 266 266 266 266 266 266 266 266 266 266 267
Wind_Speed
5 2 4 4 3 3 4 6 8 10 7 6 7 7 8 7 6 9 9 5 7 10 10 6 7 10 12 14 18 20 22 23 24 24 24 24 23 22 23 24 23 21 20 20 20 20 19 18 17 16 14 14 13 13 13 13 13 14 15 16 16 17 18 20 22 23 23 24 25 25 25 25 25 26 27 28 30 31 32 33 35 36 38 40 42 43 44
4 2 4 4 4 3 4 7 10 10 8 6 7 9 11 9 8 11 11 10 11 11 9 7 10 14 15 17 20 20 19 20 20 19 20 20 19 19 21 23 23 21 20 20 20 20 19 18 17 16 15 15 15 15 15 15 16 17 19 19 19 19 20 22 24 25 26 27 27 27 27 27 27 28 30 31 32 33 34 35 37 38 40 42 43 45 46
5 1 4 4 3 3 4 9 11 7 4 5 9 11 9 6 8 11 10 10 12 12 9 8 12 14 12 13 16 18 17 15 14 13 14 14 14 16 18 20 20 20 19 19 20 20 19 18 17 16 15 15 16 16 17 17 18 19 20 21 20 20 22 23 25 27 28 29 30 29 29 28 29 31 32 34 35 35 36 37 39 40 42 43 45 46 46
5 2 3 4 2 3 5 13 14 8 6 8 10 7 6 8 10 10 8 7 9 10 8 6 9 10 9 12 14 15 14 12 11 11 11 11 12 14 16 17 18 18 18 19 20 20 19 18 17 17 17 17 18 18 18 19 20 21 22 22 21 22 23 25 27 29 30 31 31 31 30 30 31 33 35 36 37 38 38 39 40 41 43 44 45 45 46
4 3 2 1 5 5 7 11 10 10 10 11 9 6 8 10 8 6 7 7 7 6 5 5 6 7 10 13 14 14 13 12 11 11 10 10 10 11 13 14 14 15 15 16 18 18 17 17 18 18 19 19 20 19 19 20 22 24 24 23 23 24 25 26 27 29 31 32 32 31 30 31 33 35 36 37 38 39 40 41 42 43 44 44 45 45 46
3 4 0 4 1 5 8 4 4 8 10 11 10 10 11 10 6 5 6 6 5 4 5 7 9 11 11 12 12 11 10 10 11 11 10 9 9 9 10 11 12 12 13 14 16 17 17 18 19 19 20 21 22 22 22 24 25 26 25 24 24 25 25 26 28 30 32 32 31 30 31 32 35 36 37 38 39 40 41 42 43 44 44 45 45 46 47
2 2 3 1 7 9 5 3 1 4 6 8 8 8 9 9 8 7 7 7 7 8 11 13 14 14 12 8 8 8 8 9 10 10 10 10 9 9 9 10 11 12 13 14 16 17 18 19 20 21 22 24 25 26 26 27 27 26 26 25 24 25 25 27 29 31 31 30 30 31 33 35 37 38 38 39 40 40 41 42 43 44 44 45 46 47 48
2 2 4 6 7 6 8 7 2 2 1 3 2 5 8 9 9 7 7 9 10 12 16 17 14 11 8 6 8 9 9 10 10 10 10 9 8 7 7 7 8 9 11 14 16 17 18 19 21 23 24 25 27 27 27 27 27 26 25 24 24 25 27 29 31 31 30 30 31 32 35 37 38 39 40 40 41 41 42 42 43 44 44 45 47 48 49
2 3 5 4 4 8 13 9 3 4 4 5 5 3 8 8 6 8 7 8 9 9 11 11 8 6 5 4 7 10 11 11 10 9 8 6 5 5 6 8 10 12 13 16 18 20 21 22 23 23 24 24 24 24 25 26 26 25 24 24 25 28 30 31 30 30 30 30 32 35 37 38 39 40 41 41 41 41 42 43 44 45 45 46 47 48 50
2 3 4 4 3 7 11 7 3 3 5 7 7 2 6 7 7 12 10 6 6 5 4 6 8 7 3 3 7 11 12 11 10 9 8 6 6 9 11 12 14 14 15 17 19 22 23 23 23 23 23 23 23 23 25 25 24 23 24 25 28 30 30 30 30 30 30 32 34 36 38 39 39 40 41 41 41 41 42 44 45 45 46 48 48 48 49
3 3 5 5 5 8 7 6 5 4 11 11 8 3 5 6 9 17 12 6 7 8 9 12 10 5 3 4 11 14 12 11 13 13 10 10 12 13 13 13 14 16 17 19 20 22 23 24 24 23 24 24 24 24 25 24 23 24 25 28 29 30 30 30 30 30 31 33 36 37 38 38 39 40 41 41 41 41 42 44 45 46 46 48 49 48 47
6 6 5 4 5 6 5 5 5 8 11 9 8 1 8 5 9 16 16 11 11 12 14 14 10 6 7 9 14 15 12 13 16 16 14 15 15 13 12 14 17 19 20 21 21 22 23 24 24 25 25 25 25 25 24 23 23 25 27 30 31 31 32 31 31 31 33 35 36 37 38 38 39 40 40 40 41 42 43 44 45 46 46 46 48 48 46
9 9 6 4 4 5 5 6 11 13 7 6 3 5 6 7 13 16 16 14 13 14 16 16 13 14 18 18 18 15 12 15 18 16 15 16 15 14 15 16 19 21 21 21 21 22 24 25 26 26 26 26 25 24 22 23 25 27 29 30 31 32 32 31 31 33 35 36 37 37 37 38 39 39 39 39 40 42 43 43 44 45 45 45 46 47 45
6 6 5 4 5 7 8 10 13 13 6 1 6 5 1 8 13 14 15 15 14 15 19 21 20 22 22 20 19 17 17 20 20 17 15 15 14 15 16 17 19 21 22 22 22 23 25 27 28 28 27 26 25 23 23 25 27 28 29 30 31 31 31 31 32 34 35 36 36 37 37 37 38 38 38 38 39 41 41 42 43 44 45 44 44 45 44
4 3 4 4 5 7 15 14 6 5 6 6 8 6 5 8 11 12 14 16 16 17 20 21 22 22 19 19 20 20 21 22 21 20 18 16 15 15 15 17 20 21 23 24 23 25 27 28 29 28 27 26 24 24 25 27 28 29 30 30 31 31 31 32 33 35 36 36 36 36 36 36 37 37 37 38 39 39 39 40 42 43 43 42 42 43 43
5 4 6 6 4 7 22 20 8 11 18 20 15 9 9 11 11 12 14 17 18 20 20 19 20 20 20 21 23 22 22 22 23 23 21 18 17 17 17 18 20 23 25 25 24 25 27 28 29 28 27 26 25 25 27 28 29 30 31 31 32 31 31 33 34 35 36 35 35 35 35 35 36 36 37 37 38 38 37 38 40 41 41 40 40 41 42
5 5 6 6 4 10 24 25 19 20 26 30 24 15 11 12 13 15 17 19 21 21 20 20 20 21 23 24 24 24 24 23 24 24 23 21 20 19 19 20 22 24 25 25 25 26 27 28 29 28 26 26 26 27 28 29 30 31 32 32 31 31 32 34 35 35 35 35 35 34 34 34 35 36 36 37 37 36 36 36 37 39 39 39 38 39 40
2 3 6 5 4 9 21 28 26 23 23 24 22 18 17 18 20 21 21 22 23 22 22 23 23 24 25 25 24 24 24 24 25 26 25 23 21 20 20 21 22 23 24 26 26 27 28 28 28 28 27 27 28 28 29 30 31 31 31 31 31 31 33 35 35 35 35 35 34 33 33 33 34 34 34 35 35 35 34 34 35 36 37 38 38 38 39
2 2 5 7 9 12 19 25 28 28 26 24 22 21 23 24 25 25 24 24 25 24 25 26 26 26 26 25 24 24 24 25 27 27 26 24 22 21 22 23 23 23 23 25 26 27 28 28 28 28 28 28 29 30 30 31 31 31 31 31 31 32 34 35 35 34 34 34 34 33 32 32 33 33 32 32 33 33 32 32 34 35 36 37 38 38 40
4 4 8 11 14 16 18 21 25 28 29 27 25 25 27 28 28 28 27 27 27 28 28 28 28 28 27 26 26 25 25 26 27 27 26 23 21 22 24 24 23 23 24 25 27 28 28 28 28 29 29 29 29 30 30 31 31 31 30 31 32 33 34 34 34 33 33 33 33 32 32 32 32 32 31 30 31 30 29 29 32 35 37 38 39 39 40
3 6 10 10 8 11 18 24 27 28 29 31 31 32 33 32 31 32 31 30 30 30 30 30 30 30 30 28 27 26 26 26 26 26 25 22 22 23 24 24 24 24 24 26 27 28 28 29 29 29 28 28 29 29 30 31 31 30 30 31 32 33 33 33 33 33 32 32 32 31 32 32 32 31 30 28 29 30 28 27 29 33 36 37 37 37 39
4 6 11 11 5 6 17 27 29 30 32 32 33 34 34 33 33 33 32 32 32 32 32 32 31 32 32 30 28 26 25 25 26 26 24 22 22 23 23 24 25 25 26 27 28 28 29 29 29 29 28 27 28 29 30 30 30 30 30 31 32 33 33 32 32 32 32 31 31 30 31 32 32 31 29 26 25 27 28 27 26 29 32 34 34 34 35
9 12 18 19 13 11 20 28 30 31 30 29 29 30 30 30 30 30 31 32 33 32 31 30 31 33 34 31 27 25 24 25 27 26 25 23 23 23 23 25 25 26 28 28 28 29 29 29 29 28 27 26 27 28 29 29 29 30 30 32 33 33 32 32 32 32 32 31 30 30 30 31 31 32 31 28 23 21 24 27 27 27 29 31 30 29 30
14 22 28 25 18 18 25 31 32 31 31 30 30 29 29 29 28 28 29 31 31 29 28 29 31 33 32 28 24 24 26 27 28 27 25 24 23 23 24 26 27 28 28 29 29 30 29 28 28 28 26 26 27 27 28 28 29 29 30 32 33 32 31 31 31 31 30 30 30 30 30 30 29 29 31 32 28 22 20 22 25 27 29 30 30 28 29
25 32 35 27 20 22 28 29 29 31 32 33 32 30 30 29 27 27 28 27 27 27 28 30 30 30 28 26 26 29 30 29 28 27 26 25 24 25 26 28 28 29 29 30 30 29 28 28 29 27 26 25 27 27 27 28 28 29 29 31 31 31 30 30 30 30 29 29 29 29 29 29 28 28 28 31 32 30 24 21 20 21 24 27 30 31 32
34 37 37 27 21 25 29 26 28 35 39 38 35 34 33 32 30 29 29 28 28 28 29 30 30 28 29 30 31 32 32 30 28 27 26 25 26 27 27 29 29 29 30 30 29 29 28 29 29 27 25 25 27 28 28 27 28 29 29 29 29 29 29 29 30 29 29 28 28 29 28 27 26 27 27 28 30 33 33 30 26 22 20 21 24 29 32
35 38 34 21 18 28 35 33 34 41 42 38 35 34 34 32 30 30 30 30 30 30 30 30 30 31 33 34 33 32 32 30 28 26 26 26 27 28 28 29 29 29 30 29 28 28 28 29 28 26 24 25 28 28 28 28 28 28 28 28 28 27 26 27 28 28 28 27 27 28 27 25 24 25 26 26 27 29 32 34 35 32 29 25 24 26 29
35 37 33 24 24 35 41 38 36 36 34 32 31 31 30 29 29 30 30 30 30 30 30 31 32 34 34 33 32 32 31 29 27 26 26 27 28 28 28 29 29 29 30 29 28 28 28 28 27 26 24 26 28 28 27 28 28 28 28 27 27 25 25 24 26 26 26 26 26 26 25 24 23 23 24 25 27 28 29 32 33 34 34 32 30 28 28
39 38 35 33 35 39 39 36 34 32 31 31 30 30 30 30 29 30 31 30 29 30 30 31 31 32 33 32 31 31 29 26 26 26 28 29 28 28 28 28 29 29 29 28 27 27 27 27 26 25 25 27 28 28 28 28 28 28 27 26 25 24 24 23 24 25 24 24 24 24 23 22 22 22 23 24 25 27 28 30 31 32 32 32 32 31 29
42 35 31 32 34 34 34 35 35 34 33 33 32 32 33 32 31 32 32 30 29 30 30 30 30 30 31 30 29 27 25 26 27 28 29 28 27 27 27 28 28 28 28 27 26 25 25 26 26 25 26 27 27 27 27 27 27 27 26 25 24 23 23 23 24 24 23 22 22 21 21 20 21 22 22 23 24 25 26 28 29 30 30 30 30 31 31
35 27 26 29 31 31 32 33 34 34 33 32 32 34 33 32 32 33 32 31 30 30 30 29 29 29 28 27 26 26 26 28 29 28 27 26 25 25 26 27 27 27 26 24 24 24 25 26 26 25 26 27 27 26 27 27 26 25 24 23 22 21 21 22 23 22 21 21 20 19 19 19 19 21 22 23 23 24 25 26 27 27 28 28 28 28 29
29 25 26 28 28 28 29 31 31 32 32 32 33 34 33 32 32 32 31 30 30 29 28 28 27 26 25 25 26 27 28 27 27 26 25 24 24 24 25 26 27 26 25 23 23 25 26 26 26 26 26 26 26 26 26 26 25 24 23 21 20 20 20 20 21 20 20 19 19 18 17 17 18 20 21 22 22 22 23 24 25 25 26 26 26 26 27
27 26 28 30 28 27 28 31 31 32 33 33 33 34 33 32 31 30 29 28 28 27 26 25 24 24 25 25 26 26 26 25 25 24 23 23 23 24 25 26 26 25 25 24 24 25 26 27 27 26 26 26 25 25 25 25 24 23 22 20 19 19 19 18 19 19 18 17 17 16 16 17 18 19 20 20 20 20 20 21 22 23 23 24 24 24 25
33 33 35 36 34 30 31 33 33 32 33 33 33 33 33 31 30 28 27 26 26 25 25 25 25 25 26 25 25 25 24 23 23 22 21 22 23 24 25 25 25 25 25 24 24 25 26 27 27 27 26 25 25 24 24 24 24 22 21 20 19 18 17 17 17 17 17 16 16 15 15 16 17 18 19 19 18 18 18 19 20 20 21 21 21 22 23
36 35 36 37 37 35 35 35 33 32 33 33 32 30 29 28 27 26 24 24 25 25 25 26 26 26 25 25 24 23 22 21 21 20 21 22 22 23 24 24 25 25 25 24 24 26 27 27 27 27 26 25 24 24 24 23 22 21 20 19 18 17 16 16 16 16 16 16 15 15 15 15 16 16 17 16 16 16 16 16 17 17 18 19 20 21 22
32 32 33 35 35 35 35 34 33 33 33 30 28 27 25 24 24 23 23 24 25 25 26 26 25 24 24 23 22 21 20 19 19 19 20 21 22 23 24 24 24 25 26 24 22 24 27 27 26 27 27 25 24 23 23 22 21 20 19 18 17 16 16 15 15 14 15 15 15 15 15 14 14 15 15 14 14 14 14 14 14 15 16 17 19 20 21
34 34 34 35 35 34 34 33 32 31 29 27 26 25 23 23 23 23 23 24 24 23 24 23 21 21 21 20 20 19 18 18 19 19 19 21 22 23 25 25 24 25 26 25 23 24 26 27 26 26 26 24 23 22 21 20 20 19 18 17 16 16 15 15 14 13 13 14 14 14 14 13 12 12 12 12 12 12 12 11 12 12 14 16 18 19 21
35 35 34 34 33 32 32 30 28 27 25 24 24 23 22 22 22 22 22 22 21 20 20 19 18 18 18 17 17 17 16 17 19 19 20 21 23 25 26 26 24 25 27 27 26 26 26 25 25 25 24 22 21 21 20 19 18 18 17 16 16 15 15 14 13 12 12 12 12 12 12 12 11 10 10 10 10 10 10 10 10 11 13 15 17 18 20
33 33 32 31 30 28 28 27 25 23 22 21 21 20 19 19 19 18 18 18 17 17 17 16 15 16 15 15 16 16 16 18 19 20 21 23 24 26 27 26 24 25 27 29 28 26 24 23 23 22 21 21 20 19 19 18 17 17 16 16 15 15 14 14 12 12 11 11 11 11 10 10 10 9 9 8 8 8 8 9 9 11 12 14 15 17 18
30 29 29 27 25 24 24 22 20 19 19 18 17 16 15 15 15 15 16 15 15 15 15 14 14 14 14 15 16 16 16 18 19 19 21 23 24 26 28 26 22 23 27 28 27 25 23 22 21 20 19 19 18 18 17 17 16 16 16 15 14 14 14 13 11 11 11 10 10 10 9 9 8 8 8 8 8 8 8 8 9 10 11 12 14 15 16
27 26 25 22 21 20 18 17 17 16 15 14 13 13 12 13 13 13 13 13 12 12 12 12 12 13 14 15 16 16 16 17 18 20 22 24 24 27 28 25 19 21 25 26 24 22 21 19 18 18 17 17 17 16 16 16 15 15 15 14 14 14 13 12 11 11 11 10 10 9 9 8 8 7 8 8 8 8 8 8 9 10 11 12 13 14 15
24 22 20 18 17 16 15 14 14 13 12 12 11 11 11 11 10 10 10 10 10 10 11 11 12 13 14 16 17 17 17 18 19 20 23 24 24 27 28 25 20 20 24 24 21 19 18 17 16 16 16 15 15 15 15 15 14 14 14 14 14 14 13 11 11 11 10 10 10 10 9 8 8 7 7 8 8 8 8 9 9 10 11 12 13 14 15
20 18 17 15 15 14 13 12 12 11 11 10 9 9 9 8 8 8 8 8 8 9 10 11 13 14 15 17 18 18 18 19 20 21 23 24 23 25 27 26 20 19 21 20 17 16 15 14 14 14 14 13 13 14 14 14 14 14 14 14 14 13 12 11 11 11 10 10 10 10 10 9 9 8 8 8 9 9 10 10 10 10 11 12 13 14 14
16 14 13 12 12 12 12 11 11 10 9 8 8 7 7 7 6 6 7 7 9 10 11 12 14 15 16 17 19 19 19 19 20 21 23 23 21 20 22 22 18 15 15 15 13 12 13 13 12 12 12 12 13 13 13 13 14 14 14 14 13 13 12 11 11 11 11 11 11 11 10 10 10 10 9 9 9 10 10 11 11 12 12 12 13 14 14
13 12 12 11 11 11 11 10 10 9 8 7 7 6 5 5 5 6 6 7 9 10 11 12 13 15 16 17 18 18 18 18 18 19 21 21 17 14 15 16 14 12 12 12 11 11 11 11 11 12 12 12 12 13 13 13 13 13 13 13 13 12 11 11 11 11 11 11 11 11 11 11 11 11 11 11 11 11 11 11 12 12 13 14 14 14 14
12 12 12 11 11 11 10 10 9 8 7 6 5 4 4 4 5 6 7 8 9 10 11 12 13 14 15 16 16 16 16 15 15 16 17 16 13 10 11 12 12 11 11 11 10 10 10 11 11 11 11 12 12 12 12 12 12 12 12 12 12 11 11 10 10 11 11 11 11 11 12 12 12 12 12 13 13 13 13 13 13 13 14 15 15 15 15
11 11 12 11 10 10 9 8 7 5 4 4 3 3 3 4 5 6 7 8 8 9 10 11 11 12 13 13 13 13 12 11 10 11 12 11 9 7 8 9 9 9 9 9 9 9 9 10 10 10 10 11 11 11 11 11 11 11 11 11 11 11 10 10 11 11 12 12 12 11 12 13 13 13 13 14 14 15 15 15 15 15 15 16 16 16 16
11 11 11 10 9 8 7 6 5 4 3 2 3 3 4 5 6 6 7 7 7 8 9 9 9 10 10 10 10 10 10 9 7 7 8 8 8 7 7 7 7 7 8 8 8 8 9 9 9 9 9 10 10 10 11 11 11 11 12 12 12 12 11 11 12 13 13 12 12 12 13 13 13 14 14 14 15 16 17 17 17 17 17 17 18 18 18
11 10 10 9 8 7 5 4 3 3 2 2 2 3 4 4 5 5 6 6 6 7 8 8 8 8 9 8 8 8 8 8 7 6 6 7 8 7 7 7 7 7 7 7 7 8 8 9 8 9 9 9 10 10 11 11 11 12 12 12 12 11 11 12 13 13 13 12 13 13 13 14 14 14 15 15 16 16 17 17 17 18 18 19 19 19 19
11 10 9 8 7 6 5 4 4 3 3 3 3 3 4 4 4 4 5 5 6 6 7 7 7 7 7 8 8 8 8 9 8 6 6 6 6 6 6 7 7 7 8 8 8 8 8 8 8 9 9 10 10 11 11 11 11 11 11 11 11 11 12 13 13 13 13 13 14 14 14 15 15 15 16 17 17 17 17 17 18 18 18 19 19 19 19
9 9 8 7 6 6 5 5 4 4 3 3 3 3 3 3 3 4 4 4 5 5 5 6 7 6 6 7 7 8 8 8 8 7 7 6 6 6 7 7 8 8 8 8 8 8 9 9 9 10 10 10 11 11 12 11 11 11 10 11 11 12 13 14 14 14 15 15 16 16 16 16 17 17 18 18 19 19 18 18 18 18 18 19 19 19 19
8 8 7 6 5 5 5 4 4 4 4 4 4 3 3 3 3 4 4 4 4 4 5 5 6 6 6 6 6 7 7 8 8 8 8 8 8 8 8 9 9 9 9 9 9 9 9 10 10 10 10 11 11 11 11 11 11 11 11 12 13 15 15 16 16 16 16 16 16 16 16 16 17 18 18 19 19 19 19 19 19 19 19 19 19 19 20
Wind_Direction
256 129 146 175 155 177 209 217 239 247 230 173 163 210 218 180 195 248 252 216 209 240 253 236 207 210 220 235 246 251 248 242 239 240 243 245 245 239 230 228 232 237 239 237 236 235 232 229 230 233 238 243 244 245 251 258 269 280 288 293 300 309 316 319 318 315 313 312 312 312 313 313 312 313 313 314 314 314 314 315 315 316 317 316 316 315 314
264 176 172 189 174 194 233 232 234 240 240 210 197 226 232 212 220 246 254 254 252 250 246 241 242 240 234 242 252 253 249 246 244 245 247 248 246 239 233 233 237 240 241 240 238 234 229 229 235 240 246 251 254 258 264 272 281 288 290 294 299 306 313 316 315 313 311 310 310 311 311 311 311 311 312 312 312 312 313 313 314 315 315 315 315 314 313
284 250 177 199 179 178 236 256 250 233 207 220 231 239 241 232 239 244 247 258 265 264 250 240 260 265 248 234 238 239 239 241 237 237 240 241 238 235 234 236 238 240 243 242 238 233 231 236 242 249 256 261 266 269 271 274 278 279 281 286 293 299 306 310 310 309 308 307 308 309 308 308 309 310 310 310 310 311 311 312 313 314 314 314 314 313 312
275 301 186 214 32 37 282 269 261 239 211 231 240 233 217 222 236 244 247 248 254 266 271 259 259 254 230 219 220 219 222 224 227 237 239 235 234 232 233 236 238 242 245 245 241 236 237 245 251 257 264 268 270 272 272 271 269 270 275 281 287 293 300 304 306 306 305 305 306 306 305 306 307 308 308 309 309 309 310 311 312 312 312 312 312 311 310
269 300 215 174 40 16 282 264 247 230 233 242 247 249 235 224 217 220 233 236 238 250 266 271 261 242 232 231 220 210 212 217 226 240 243 241 240 237 236 237 238 242 245 243 240 239 245 254 258 262 266 269 271 273 271 264 261 266 271 275 281 289 296 300 302 302 302 302 303 302 302 303 304 305 306 306 307 308 309 310 310 311 311 311 311 310 309
251 272 51 68 29 253 257 259 176 198 223 230 232 241 241 228 206 206 233 247 246 235 225 232 243 245 246 244 230 215 214 220 228 237 242 245 245 243 246 247 246 247 246 243 242 246 253 259 260 262 263 264 265 264 259 255 256 262 265 268 277 287 293 296 297 298 299 299 300 299 300 302 303 304 305 305 306 307 308 309 310 310 311 310 310 310 309
198 226 89 120 240 242 269 331 119 190 212 213 221 244 251 240 227 226 246 253 243 239 236 236 245 252 255 251 230 209 211 229 240 241 240 244 250 253 255 256 253 251 249 248 249 251 254 255 254 254 255 256 256 254 251 251 254 257 260 267 279 287 290 293 294 295 297 297 297 298 300 302 304 305 305 305 306 307 308 309 309 309 310 310 310 310 309
156 147 160 214 248 283 297 286 243 157 200 182 206 275 267 246 226 209 222 244 244 244 248 251 255 253 243 225 210 204 217 238 240 234 234 241 249 251 251 253 258 262 263 264 263 261 260 256 253 252 252 252 253 252 250 251 252 255 262 273 283 288 290 292 293 294 295 295 296 299 302 304 305 306 307 307 308 308 309 309 309 308 309 309 309 309 310
168 172 213 247 319 310 285 270 200 174 207 172 152 240 261 249 216 177 185 232 244 239 247 252 240 215 209 224 224 221 226 231 229 228 228 225 230 249 267 275 278 281 280 276 272 269 267 264 260 257 256 255 254 253 251 252 254 259 270 281 287 290 291 292 293 294 295 296 299 302 305 306 307 307 308 308 309 309 309 309 308 308 309 310 310 310 311
129 139 242 275 293 264 260 261 245 207 185 159 137 154 276 270 203 174 176 209 214 185 195 201 180 175 204 274 255 236 224 222 229 229 219 225 266 289 292 287 281 281 280 275 273 271 269 265 262 259 258 256 254 253 253 256 261 269 278 285 289 291 292 292 293 294 296 299 303 305 307 308 308 308 308 309 309 309 309 308 308 309 311 311 312 312 313
149 163 224 230 235 249 250 254 258 162 149 143 107 70 289 268 192 181 182 195 196 189 194 188 172 165 198 247 258 248 233 231 237 233 235 265 292 298 291 281 276 279 281 277 274 270 265 262 259 257 256 255 253 254 256 260 267 275 283 290 293 294 294 294 295 297 299 303 306 307 308 308 308 308 308 309 309 309 308 308 309 311 312 313 313 314 315
211 211 227 231 243 253 244 234 207 156 141 120 84 5 270 250 172 175 180 187 204 214 209 190 171 179 206 239 266 263 252 247 239 237 257 281 292 292 282 275 276 279 280 278 275 269 262 258 257 255 255 254 253 254 257 263 272 283 291 296 296 296 296 297 297 300 303 306 308 308 308 308 308 308 309 309 309 309 309 309 311 312 314 314 315 315 316
224 218 229 256 262 243 221 181 172 160 116 72 124 227 236 177 163 173 182 196 216 222 210 195 195 221 237 254 269 271 271 261 243 242 263 277 282 283 278 275 276 275 275 275 273 268 261 258 257 256 255 254 254 255 261 271 282 291 295 296 296 296 297 297 299 302 306 307 308 309 309 309 308 309 309 310 309 309 309 311 312 314 314 315 316 316 316
224 225 231 252 274 245 198 166 168 163 124 83 218 228 196 171 185 195 203 214 224 223 216 213 221 238 250 257 262 268 276 268 251 247 258 263 268 274 273 273 272 270 270 271 270 267 264 261 259 257 256 255 256 262 271 282 290 295 296 296 295 295 296 297 300 304 307 308 309 309 310 310 309 309 310 309 309 309 311 313 314 315 316 317 317 316 316
174 218 221 219 270 225 165 148 152 180 183 224 236 242 249 229 225 225 223 229 235 231 227 227 232 242 251 256 262 270 275 268 255 249 253 256 261 265 266 269 269 269 268 268 267 268 266 263 260 257 256 257 262 271 281 289 294 296 296 296 296 296 296 299 303 306 308 309 310 310 310 311 310 310 310 309 309 311 313 315 315 316 317 317 317 316 315
155 191 212 210 254 182 160 159 187 209 211 231 243 236 227 226 229 234 238 247 249 240 234 233 237 243 251 259 267 271 270 265 257 252 253 256 257 258 261 266 268 268 269 268 268 268 265 262 259 257 257 261 269 279 288 294 296 297 296 296 296 296 297 300 304 307 309 310 310 311 312 312 310 310 310 310 311 313 316 317 317 317 317 318 318 317 315
171 188 216 217 224 182 176 188 211 216 221 234 238 231 232 237 242 247 249 253 253 246 240 241 244 250 258 265 269 269 267 266 262 258 258 257 255 257 262 267 268 268 268 269 269 268 265 262 260 259 261 269 278 287 292 295 295 295 294 295 295 296 299 303 307 308 309 310 311 311 312 312 311 310 311 311 313 316 318 319 318 317 317 319 319 317 316
224 230 230 217 214 197 193 203 218 226 230 234 232 237 251 258 260 260 257 257 258 253 247 247 251 259 265 266 266 266 266 265 263 262 259 255 254 260 268 273 272 268 265 266 265 265 264 262 261 263 269 278 286 291 293 293 292 292 293 294 296 298 302 305 308 309 310 310 311 311 312 311 311 311 312 313 315 317 320 320 319 318 319 320 320 320 321
217 240 225 203 200 205 202 207 219 225 228 230 237 252 263 267 269 267 264 265 264 259 254 254 259 265 266 262 261 261 260 261 262 259 255 252 258 270 277 279 275 268 263 263 263 262 262 262 265 270 277 283 288 290 290 290 290 291 293 295 297 300 304 307 309 310 310 311 311 312 312 311 310 311 312 314 316 318 321 321 320 320 321 322 324 325 324
206 241 247 226 215 217 217 219 223 225 228 235 247 263 270 272 273 271 269 267 264 260 259 260 263 266 264 259 257 258 258 261 262 256 250 252 264 276 281 279 274 268 263 262 261 261 262 265 270 275 280 284 286 287 288 288 289 291 294 296 299 302 306 308 309 310 311 311 312 312 312 311 310 311 313 315 316 318 323 324 322 324 325 325 326 325 322
231 260 259 248 240 243 242 239 238 239 243 249 258 267 271 272 271 271 270 269 267 265 265 266 266 266 263 260 258 258 260 263 260 251 248 257 270 277 279 277 272 267 263 261 261 262 265 269 273 277 281 283 284 285 287 288 289 292 294 297 301 305 307 308 309 310 311 311 312 312 311 310 310 310 313 317 318 319 323 327 327 326 325 323 322 319 315
235 241 237 230 223 252 252 250 253 256 258 260 264 267 270 270 270 270 270 270 269 267 267 268 268 265 263 261 258 258 262 264 257 249 252 263 273 276 275 272 268 265 263 262 263 265 268 271 275 278 280 282 283 284 285 287 289 293 297 301 304 306 307 308 310 311 311 311 312 312 311 310 310 311 313 317 321 322 323 326 328 327 324 322 321 317 310
238 244 241 232 218 231 252 259 264 268 269 270 268 268 271 271 270 272 272 269 268 266 264 266 267 266 264 260 257 259 264 263 256 252 258 268 273 275 273 270 267 265 264 264 265 267 270 273 275 277 279 280 281 282 284 286 290 295 300 304 306 307 308 309 310 311 311 311 311 311 310 310 311 312 313 315 318 321 323 326 328 328 325 325 327 324 316
242 250 253 246 231 237 254 262 267 272 274 274 271 271 273 273 273 274 273 269 267 266 265 267 270 268 263 258 257 263 266 262 256 256 262 268 270 272 272 269 266 265 265 266 268 270 272 274 276 277 279 280 280 282 284 288 293 298 303 305 306 307 309 310 310 310 310 310 310 310 310 310 311 313 315 316 317 319 322 325 329 330 330 331 332 332 328
242 250 255 254 245 250 261 265 268 271 272 272 271 271 272 273 274 273 271 267 266 266 268 272 272 266 258 255 261 267 264 258 255 258 263 265 266 269 270 267 265 266 267 268 270 272 274 275 277 278 280 280 281 283 287 291 296 301 304 305 305 307 308 309 308 308 308 308 308 308 309 310 312 315 318 319 321 323 325 327 328 330 333 336 337 335 333
245 250 255 257 256 258 261 260 261 265 268 268 268 270 272 275 275 273 270 268 268 268 271 272 269 261 256 259 263 263 257 252 254 258 261 263 266 268 268 266 265 266 268 269 271 272 273 275 276 278 280 281 283 286 290 295 299 302 303 303 304 306 307 307 306 306 306 307 307 307 308 310 313 316 319 322 325 328 331 333 334 335 337 341 342 339 335
249 250 250 251 255 257 256 253 256 263 268 268 268 271 275 277 275 273 270 269 270 270 270 267 262 259 260 261 260 255 250 250 254 258 261 265 267 267 266 265 266 267 268 269 270 271 273 274 276 277 281 283 284 288 293 296 300 302 302 302 304 305 305 304 303 302 303 304 305 306 308 310 313 317 319 323 327 330 332 334 336 338 341 344 347 344 337
256 252 246 238 243 254 259 260 261 264 268 269 269 272 274 273 270 268 267 268 270 270 267 263 261 260 260 258 254 251 249 251 255 261 265 267 267 266 265 266 266 267 267 268 269 270 272 274 275 278 282 284 286 290 294 298 300 301 301 302 303 303 301 300 298 298 300 302 304 305 307 311 315 317 320 324 327 330 332 333 334 336 339 343 345 345 340
258 255 249 244 247 256 261 263 263 265 267 269 271 271 270 268 267 267 268 270 270 269 266 265 263 260 258 255 252 250 250 254 261 267 268 267 266 265 265 265 265 265 266 267 268 269 271 273 275 279 283 284 287 291 296 298 299 300 300 301 301 300 299 296 295 295 297 300 302 305 308 312 315 317 320 324 327 329 332 334 336 337 339 342 343 343 344
257 255 252 252 254 256 256 257 261 264 265 268 270 269 268 268 267 269 271 272 271 269 268 266 262 259 256 255 253 253 257 263 267 268 267 265 266 266 264 264 264 264 264 265 267 268 271 273 276 280 283 284 288 293 295 297 297 297 298 298 298 297 296 293 292 294 297 300 302 304 308 312 314 317 321 325 327 329 332 335 338 339 341 344 346 346 345
258 256 255 256 256 254 253 255 259 263 265 266 267 265 265 265 265 268 271 272 271 271 269 265 262 259 257 255 254 257 262 265 266 265 265 265 265 265 264 264 264 264 264 265 267 270 273 275 278 282 284 287 291 294 294 295 295 295 295 295 295 293 291 290 291 295 298 301 303 305 308 312 315 319 322 325 327 329 333 336 340 343 344 348 351 351 348
259 258 258 257 254 251 251 252 254 259 263 263 262 263 264 264 265 269 272 272 271 271 268 265 262 259 255 254 256 258 261 262 263 263 265 265 265 264 264 264 265 265 266 267 269 272 276 278 281 284 286 289 292 293 293 293 294 294 293 292 290 288 286 286 290 294 298 301 303 306 310 314 317 320 323 325 327 331 335 337 342 346 349 352 355 355 354
249 248 251 252 247 242 245 249 252 257 262 265 265 267 268 267 267 269 269 268 267 266 264 261 259 255 253 255 257 259 261 261 262 263 264 263 263 263 262 263 264 266 269 272 275 277 280 281 284 286 288 291 292 293 292 293 292 291 290 288 286 285 284 285 289 294 297 299 302 306 311 316 319 321 323 324 328 333 336 339 344 349 352 357 1 2 2
245 245 252 257 255 251 253 257 259 262 265 268 269 268 267 266 265 264 263 261 260 259 257 255 254 254 256 258 259 259 260 260 261 262 262 260 260 260 261 263 266 269 273 277 280 282 284 285 288 290 291 292 293 292 291 290 289 287 287 286 284 283 284 285 289 292 295 297 301 306 311 316 318 320 322 325 329 333 336 342 349 354 356 1 8 11 13
253 253 258 261 261 260 261 262 264 265 266 267 267 266 264 264 262 260 259 256 255 254 253 252 253 255 257 259 259 259 260 261 261 261 260 259 259 261 263 267 271 274 277 281 285 286 287 288 290 291 292 292 291 289 287 285 284 283 283 282 281 282 283 284 287 291 294 298 302 307 312 316 318 320 322 326 329 333 338 346 353 358 2 7 13 17 21
257 256 257 259 259 259 259 259 260 261 262 262 262 260 259 258 256 256 255 253 252 251 251 252 254 255 256 258 260 261 262 263 261 260 260 262 265 268 270 273 276 278 281 284 287 287 288 289 290 290 290 289 287 285 282 281 280 279 278 278 278 279 281 283 286 290 295 298 302 307 311 315 318 320 322 326 329 333 340 349 356 3 9 13 15 18 21
257 256 257 258 257 257 257 256 257 256 255 255 255 255 254 253 251 250 250 250 250 251 252 253 255 257 258 260 261 262 262 263 263 264 266 269 272 274 275 278 281 284 286 289 288 286 286 288 288 287 286 285 282 279 277 275 274 273 273 274 275 277 280 281 284 288 294 297 301 306 310 313 317 319 321 324 329 335 343 351 357 4 11 13 14 15 16
256 256 256 255 253 253 252 252 251 251 250 251 252 251 249 248 247 246 247 248 250 252 254 256 257 258 258 259 259 259 260 263 265 268 271 273 275 277 278 281 285 288 289 288 287 286 286 286 285 284 282 280 276 273 271 270 269 268 269 270 272 276 278 279 281 286 292 296 301 305 308 311 316 319 322 325 331 338 345 351 355 1 6 9 11 11 12
253 253 252 250 247 246 245 245 246 246 247 248 248 247 245 245 245 245 247 248 249 252 253 254 255 256 256 257 258 258 260 263 266 269 272 274 277 280 282 286 291 291 289 287 287 288 287 285 281 278 275 271 268 267 265 264 264 264 265 267 270 273 275 276 280 285 291 295 301 305 307 310 316 321 325 330 335 339 342 345 351 357 1 5 7 8 11
248 247 246 243 241 240 240 241 242 243 242 241 241 240 240 241 241 242 244 245 247 249 251 251 254 257 259 261 262 262 264 267 271 274 276 278 281 284 286 290 292 289 286 286 287 287 284 280 274 270 266 263 261 260 259 259 260 261 262 265 267 269 271 273 278 284 289 294 299 303 305 308 314 321 326 329 334 336 337 339 344 350 355 359 3 5 9
242 240 239 236 235 235 236 237 238 238 235 233 231 230 230 231 233 235 237 239 242 247 251 255 259 263 266 269 270 272 274 277 279 281 282 283 285 286 287 290 291 286 282 283 283 281 277 271 265 260 256 255 255 255 255 257 259 260 261 263 264 264 266 269 275 280 285 290 296 299 302 304 309 315 321 325 328 329 331 334 339 343 347 352 356 359 3
235 233 231 229 229 229 229 230 231 228 224 223 221 220 221 224 226 230 235 239 244 251 258 265 270 273 276 278 281 284 286 286 286 286 287 287 288 287 288 289 288 282 278 277 276 273 268 262 255 252 249 248 250 253 255 257 258 259 260 261 261 260 261 265 270 276 281 286 292 296 298 301 305 309 313 318 320 320 321 324 329 335 341 346 349 352 355
228 226 223 223 224 223 222 222 219 214 213 212 209 208 214 218 221 231 241 250 259 266 272 278 283 285 286 288 289 292 293 291 291 290 288 287 288 288 288 288 285 277 273 272 270 264 258 250 245 245 247 248 252 254 255 257 258 258 258 258 258 258 259 262 266 271 277 281 286 290 293 298 302 305 307 310 311 311 313 317 321 327 333 338 342 345 348
220 218 216 216 215 213 211 209 205 202 202 201 200 204 211 217 225 240 252 264 274 279 284 289 291 292 294 294 294 295 295 293 292 290 288 288 289 288 285 285 283 273 264 262 257 248 244 244 244 247 251 254 255 255 254 255 256 256 256 256 256 256 258 262 265 270 274 277 280 283 288 293 297 300 303 305 303 303 306 310 314 319 325 330 334 338 339
210 207 206 205 202 199 197 196 194 194 194 195 197 205 213 225 245 260 271 280 285 289 293 295 294 294 294 293 294 295 296 295 295 293 291 292 295 289 279 277 275 262 249 245 242 239 243 247 249 251 253 254 254 254 253 254 254 253 254 256 257 257 259 264 268 272 275 277 278 280 284 287 291 295 299 301 300 300 302 304 307 312 317 321 325 328 330
199 195 191 190 188 187 186 187 189 190 190 192 202 218 235 253 271 281 286 290 293 294 295 294 292 291 292 293 295 298 300 301 300 296 294 297 298 284 266 266 267 258 246 241 241 243 247 250 251 252 253 253 252 253 253 252 253 253 254 255 257 259 262 267 272 275 277 278 278 282 285 287 289 292 295 296 297 298 298 300 303 307 310 313 316 319 321
188 184 180 178 179 180 179 180 182 182 184 195 220 246 263 277 287 290 291 293 295 294 293 293 292 292 294 297 300 302 305 307 303 297 298 304 303 283 264 260 260 254 247 245 246 248 251 253 254 254 254 251 251 253 254 253 254 256 258 260 262 263 267 272 276 278 279 279 281 284 287 288 291 293 295 294 295 295 295 297 300 302 303 305 308 310 312
173 174 172 171 172 171 170 173 179 184 193 214 239 261 275 284 290 292 293 294 294 292 294 296 298 298 300 302 303 305 308 311 307 300 300 303 301 292 278 265 256 251 251 253 255 258 260 260 257 256 256 254 254 255 256 258 259 261 263 266 268 269 273 277 278 278 279 280 282 285 286 288 290 293 294 294 294 294 294 295 298 299 300 301 303 304 306
166 167 167 165 165 165 165 167 179 200 221 237 255 270 277 280 285 290 294 296 299 300 302 304 306 306 305 304 303 302 303 304 303 298 295 295 295 290 280 268 261 261 265 268 268 268 267 264 261 260 261 262 263 263 264 266 267 267 268 269 272 275 277 278 277 277 279 282 283 285 286 289 291 293 294 295 294 293 293 295 297 298 300 301 301 303 304
159 157 158 159 160 162 168 176 187 204 220 232 246 263 271 276 285 292 295 299 303 305 306 309 313 314 309 303 301 300 300 300 299 296 291 290 290 286 279 273 271 273 275 275 273 270 269 268 269 270 272 273 273 273 272 271 270 270 271 273 277 279 279 277 277 279 282 284 284 285 287 290 293 295 295 295 294 293 293 295 296 297 299 300 302 303 304
152 152 157 162 163 166 175 186 192 199 207 216 227 241 257 268 277 283 285 291 299 306 308 311 315 318 313 305 302 302 301 301 301 300 298 296 295 293 290 286 282 279 277 275 272 270 270 271 273 276 277 278 276 273 272 271 271 272 275 278 279 278 278 278 280 283 284 284 285 288 290 292 294 294 293 293 293 293 293 294 294 295 297 298 299 301 302
154 158 161 168 174 179 185 191 196 201 209 216 222 232 242 253 265 277 284 292 301 307 307 305 308 313 315 309 302 301 301 301 300 298 298 297 295 293 291 288 284 281 279 276 274 272 272 274 276 278 278 276 273 271 271 273 274 275 277 278 277 277 278 279 281 282 283 285 288 291 293 294 295 295 294 293 293 294 294 294 295 295 296 298 299 300 300